Regional Weather Roundup
Issued by NWS

Home | Current Version | Previous Version | Graphics & Text | Print | Product List | Glossary On
Versions: 1 2 3 4 5 6 7 8 9 10 11 12 13 14 15 16 17 18 19 20 21 22 23 24 25 26 27 28 29 30 31 32 33 34 35 36 37 38 39 40 41 42 43 44 45 46 47 48 49 50
525
ASUS44 KJAN 251710
RWRMS

MISSISSIPPI HOURLY WEATHER ROUNDUP
NATIONAL WEATHER SERVICE JACKSON MS
1100 AM CST SUN JAN 25 2015

NOTE: "FAIR: INDICATES FEW OR NO CLOUDS BELOW 12,000 FEET WITH NO
SIGNIFICANT WEATHER AND/OR OBSTRUCTIONS TO VISIBILITY.

MSZ001>002-007>008-010>013-018>021-025>028-034>036-251800-
NORTHWEST MISSISSIPPI

CITY           SKY/WX    TMP DP  RH WIND       PRES   REMARKS
CLARKSDALE     PTSUNNY   48  41  76 SW9       29.79S
CLEVELAND      CLOUDY    52  43  73 SW17      29.80F
GREENWOOD      MOSUNNY   54  41  61 SW15G22   29.81F
GREENVILLE     PTSUNNY   53  40  61 SW14      29.81S
GRENADA        PTSUNNY   55  37  50 SW12G20   29.79F
OLIVE BRANCH   CLOUDY    46  39  76 SW14G21   29.74R
OXFORD         FAIR      54  36  50 SW13G21   29.78R
TUNICA         CLOUDY    46  37  71 SW12G20   29.77S
$$

MSZ003>006-009-014>017-022>024-029>033-037>039-251800-
NORTHEAST MISSISSIPPI

CITY           SKY/WX    TMP DP  RH WIND       PRES   REMARKS
COLUMBUS AFB   SUNNY     55  38  53 S9G20     29.82F
CORINTH        FAIR      50  37  62 S9        29.73F
GOLDN TRIANGLE MOSUNNY   55  39  54 SW14G21   29.83F
STARKVILLE     FAIR      55  37  50 SW10G18   29.81F
TUPELO         SUNNY     54  37  52 S12       29.75F
$$

MSZ040-058-251800-
CENTRAL MISSISSIPPI

CITY           SKY/WX    TMP DP  RH WIND       PRES   REMARKS
JACKSON INTL   SUNNY     58  39  49 SW15      29.87F
JACKSON HAWKNS SUNNY     58  38  47 SW14G23   29.87F
MERIDIAN KEY   SUNNY     56  37  49 SW13      29.89F
MERIDIAN NAS   SUNNY     56  37  49 SW8G16    29.89F
RAYMOND        FAIR      57  54  88 SW20      29.87F
VICKSBURG      SUNNY     58  39  49 SW10G18   29.87F
$$

MSZ059>079-251800-
SOUTH MISSISSIPPI

CITY           SKY/WX    TMP DP  RH WIND       PRES   REMARKS
BROOKHAVEN     FAIR      57  37  47 SW9       29.94F
HATTIESBURG    SUNNY     58  36  43 SW9G22    29.97F
MCCOMB         SUNNY     58  37  45 W13G20    29.96F
NATCHEZ        SUNNY     59  39  47 SW13G21   29.92F
PINE BELT      SUNNY     57  36  44 SW8       29.96F
$$

MSZ080>082-251800-
COASTAL MISSISSIPPI

CITY           SKY/WX    TMP DP  RH WIND       PRES   REMARKS
BAY ST LOUIS   SUNNY     57  37  47 SW10G17   30.01F
BILOXI         SUNNY     57  46  66 SW10      30.01F
PASCAGOULA     SUNNY     59  42  53 SW10G16   30.01F
GULFPORT       SUNNY     57  44  62 S12       30.00F
$$



USA.gov is the U.S. government's official web portal to all federal, state and local government web resources and services.